[[{"header":{"parameterUnit":"m.s-1","parameterCategory":1,"la1":30.2991,"la2":30.254,"lo1":-89.0895,"lo2":-89.0444,"dy":0.0017,"dx":0.0017,"nx":28,"ny":28,"refTime":"2024-10-02T21:00:00:Z","depth":0,"parameterNumber":2,"parameterNumberName":"U-component_of_WINDS"},"data":[0,0,0,0,0,0,0,0,0,0,0,0,0,0,0,0,0,0,0,0,0,0,0,0,0,0,0,0,0,0,0,0,0,0,0,0,0,0,0,0,0,0,0,0,0,0,0,0,0,0,0,0,0,0,0,0,0,0,-1.9192,-1.9191,0,-1.9092,-1.9091,-1.9089,-1.9006,-1.9005,-1.9004,-1.9003,-1.8899,-1.8897,-1.8895,0,0,0,0,0,0,0,0,0,0,0,0,0,-1.9311,-1.931,-1.9192,-1.9191,-1.919,-1.9092,-1.9091,-1.9089,-1.9006,-1.9005,-1.9004,-1.9003,-1.89,-1.8898,-1.8895,0,0,0,0,0,0,0,0,0,0,0,0,0,-1.924,-1.9309,-1.9193,-1.9137,-1.9131,-1.9092,-1.909,-1.9089,-1.9006,-1.9005,-1.9004,-1.9002,-1.8901,-1.8898,-1.8895,-1.8904,0,0,-1.8886,-1.8885,0,0,0,0,0,0,0,0,-1.9244,-1.9236,-1.9146,-1.914,-1.9134,-1.906,-1.9094,-1.9027,-1.9007,-1.9053,-1.9003,-1.9002,-1.8954,-1.8946,-1.893,-1.8899,-1.8894,-1.8886,-1.8884,-1.8883,-1.8882,0,0,0,0,0,0,0,-1.9249,-1.924,-1.9152,-1.9145,-1.9137,-1.9116,-1.9105,-1.9081,-1.9012,-1.9049,-1.9043,-1.9032,-1.895,-1.8933,-1.8927,-1.8893,-1.8886,-1.8883,-1.8881,-1.888,-1.8864,-1.8866,0,0,0,0,0,0,-1.9263,-1.9244,-1.9156,-1.9149,-1.9187,-1.9115,-1.9102,-1.9085,-1.9012,-1.9,-1.9034,-1.9029,-1.8939,-1.8931,-1.8923,-1.893,-1.8883,-1.888,-1.8878,-1.8863,-1.8865,-1.8866,0,0,0,0,0,0,-1.9266,-1.9256,-1.916,-1.9195,-1.9181,-1.9115,-1.9096,-1.9084,-1.9067,-1.9,-1.8988,-1.9029,-1.8938,-1.8927,-1.8909,-1.8925,-1.8879,-1.8876,-1.8861,-1.8864,-1.8865,-1.8943,0,0,0,0,0,0,-1.927,-1.9257,-1.926,-1.9196,-1.918,-1.9148,-1.9097,-1.9083,-1.9062,-1.9055,-1.8993,-1.8981,-1.8936,-1.8914,-1.8907,-1.892,-1.8874,-1.886,-1.8862,-1.8865,-1.8938,-1.8947,-1.8954,0,0,0,0,0,-1.9274,-1.9285,-1.9261,-1.9251,-1.9182,-1.9149,-1.914,-1.9087,-1.9064,-1.9066,-1.9024,-1.8983,-1.8924,-1.8913,-1.8904,-1.8917,-1.8859,-1.8862,-1.8865,-1.8935,-1.8945,-1.8954,0,0,0,0,0,0,-1.9353,-1.9276,-1.9248,-1.9238,-1.9201,-1.9135,-1.9136,-1.91,-1.9068,-1.9063,-1.8998,-1.8985,-1.8975,-1.8943,-1.8932,-1.8922,-1.8886,-1.8888,-1.8943,-1.8952,-1.896,-1.8968,-1.8871,0,0,0,0,0,-1.9369,-1.9349,-1.9283,-1.9281,-1.9264,-1.9204,-1.9187,-1.915,-1.9109,-1.9092,-1.9048,-1.9009,-1.8982,-1.8965,-1.8936,-1.8933,-1.8919,-1.8937,-1.8945,-1.8952,-1.8955,-1.8952,-1.896,-1.8876,-1.8876,-1.8876,0,0,-1.9402,-1.9358,-1.9349,-1.9296,-1.9262,-1.9243,-1.9191,-1.9172,-1.9157,-1.9089,-1.907,-1.9037,-1.8989,-1.8979,-1.8972,-1.8952,-1.8975,-1.8956,-1.8962,-1.896,-1.8956,-1.8964,-1.8971,-1.8878,-1.8878,-1.8877,0,0,-1.9453,-1.9417,-1.9413,-1.9381,-1.9331,-1.9291,-1.929,-1.923,-1.9205,-1.9185,-1.9134,-1.9115,-1.9069,-1.9037,-1.9015,-1.9056,-1.9018,-1.9048,-1.909,-1.9089,-1.9095,-1.9101,-1.9117,-1.9123,-1.905,-1.905,-1.905,0,-1.9501,-1.947,-1.9415,-1.94,-1.9378,-1.9316,-1.9311,-1.9282,-1.9226,-1.9213,-1.9191,-1.9133,-1.9096,-1.9079,-1.9089,-1.9073,-1.907,-1.9055,-1.9099,-1.9104,-1.9108,-1.9123,-1.9129,-1.9054,-1.9054,-1.9053,-1.9053,0,-1.9532,-1.9512,-1.9514,-1.9462,-1.944,-1.9431,-1.9373,-1.9358,-1.9323,-1.9286,-1.9267,-1.922,-1.9182,-1.9174,-1.914,-1.9153,-1.9142,-1.9111,-1.9074,-1.9121,-1.9134,-1.9139,-1.906,-1.9059,-1.9058,-1.9057,0,0,-1.963,-1.9548,-1.955,-1.9526,-1.9467,-1.9451,-1.9438,-1.9401,-1.939,-1.9353,-1.9341,-1.9304,-1.9275,-1.925,-1.9211,-1.921,-1.9247,-1.9179,-1.9176,-1.9194,-1.926,-1.9285,-1.9292,-1.9221,-1.9222,-1.9223,-1.9264,0,-1.9673,-1.9648,-1.9598,-1.9588,-1.957,-1.9511,-1.95,-1.9463,-1.9427,-1.9406,-1.9366,-1.9342,-1.9305,-1.9289,-1.9285,-1.9244,-1.9259,-1.9239,-1.9211,-1.921,-1.9226,-1.9298,-1.9325,-1.9366,-1.9269,-1.927,-1.927,0,-1.9719,-1.9688,-1.9677,-1.9621,-1.9611,-1.9602,-1.9565,-1.9545,-1.9502,-1.9476,-1.9449,-1.9407,-1.9391,-1.9356,-1.9334,-1.9321,-1.9306,-1.9284,-1.9285,-1.9281,-1.9244,-1.9298,-1.9378,-1.9385,-1.9277,-1.9276,-1.9276,0,-1.9794,-1.9748,-1.9736,-1.9717,-1.9651,-1.9646,-1.9618,-1.9574,-1.9555,-1.9522,-1.951,-1.9475,-1.9456,-1.9431,-1.938,-1.9359,-1.9364,-1.9325,-1.9343,-1.9345,-1.9347,-1.9348,-1.9428,-1.9336,-1.9336,-1.9336,-1.9335,0,-1.9848,-1.9844,-1.9769,-1.9762,-1.9756,-1.9698,-1.9694,-1.966,-1.9621,-1.9607,-1.9553,-1.954,-1.9474,-1.9453,-1.9414,-1.9402,-1.9394,-1.9373,-1.9363,-1.9379,-1.9382,-1.9369,-1.9365,-1.9337,-1.9337,-1.9336,-1.9336,0,-1.9931,-1.988,-1.9863,-1.9802,-1.9787,-1.9785,-1.9733,-1.9724,-1.9685,-1.9668,-1.966,-1.96,-1.9573,-1.952,-1.9478,-1.9452,-1.945,-1.9431,-1.9465,-1.9459,-1.9481,-1.948,-1.9556,-1.9564,-1.9466,-1.9467,-1.9468,0,-1.9969,-1.9965,-1.9904,-1.9891,-1.9865,-1.9844,-1.9825,-1.9768,-1.975,-1.9702,-1.9699,-1.9668,-1.9641,-1.9601,-1.9554,-1.9522,-1.9502,-1.9531,-1.9497,-1.9514,-1.9505,-1.9507,-1.9506,-1.954,-1.9541,-1.9542,-1.9543,0,-2.0043,-2.0019,-1.9994,-1.9961,-1.994,-1.9911,-1.9878,-1.987,-1.9806,-1.9789,-1.9762,-1.974,-1.9699,-1.9669,-1.9631,-1.9602,-1.9562,-1.9554,-1.9557,-1.9574,-1.9594,-1.9585,-1.9487,-1.9553,-1.9552,-1.9551,-1.955,-1.955,-2.0106,-2.01,-2.0057,-2.0031,-2.0001,-1.9973,-1.9962,-1.9922,-1.9899,-1.9861,-1.9828,-1.9805,-1.9762,-1.9706,-1.968,-1.966,-1.9641,-1.9644,-1.9645,-1.9648,-1.9655,-1.9597,-1.9653,-1.9652,-1.9652,-1.9652,-1.9651,0,-2.0179,-2.0148,-2.0125,-2.0083,-2.0063,-2.0027,-1.999,-1.9976,-1.9956,-1.9919,-1.9894,-1.9863,-1.9835,-1.9786,-1.9753,-1.9747,-1.9728,-1.9741,-1.9741,-1.9736,-1.9674,-1.9675,-1.9757,-1.9757,-1.9757,-1.9757,-1.9757,-1.9757,-2.0215,-2.0204,-2.0174,-2.0148,-2.0117,-2.0094,-2.0076,-2.0049,-2.0021,-1.9989,-1.9966,-1.9934,-1.9892,-1.9857,-1.9829,-1.9815,-1.9807,-1.9825,-1.9806,-1.9749,-1.974,-1.973,-1.9732,-1.9823,-1.9824,-1.987,-1.987,-1.987]},{"header":{"parameterUnit":"m.s-1","parameterCategory":1,"la1":30.2991,"la2":30.254,"lo1":-89.0895,"lo2":-89.0444,"dy":0.0017,"dx":0.0017,"nx":28,"ny":28,"refTime":"2024-10-02T21:00:00:Z","depth":0,"parameterNumber":3,"parameterNumberName":"V-component_of_WINDS"},"data":[0,0,0,0,0,0,0,0,0,0,0,0,0,0,0,0,0,0,0,0,0,0,0,0,0,0,0,0,0,0,0,0,0,0,0,0,0,0,0,0,0,0,0,0,0,0,0,0,0,0,0,0,0,0,0,0,0,0,0.4225,0.4225,0,0.4285,0.4286,0.4287,0.4296,0.4296,0.4295,0.4295,0.4355,0.4357,0.4359,0,0,0,0,0,0,0,0,0,0,0,0,0,0.4114,0.4116,0.4225,0.4226,0.4226,0.4285,0.4286,0.4287,0.4296,0.4296,0.4295,0.4294,0.4355,0.4357,0.436,0,0,0,0,0,0,0,0,0,0,0,0,0,0.4167,0.4116,0.4225,0.4238,0.424,0.4285,0.4286,0.4287,0.4296,0.4296,0.4295,0.4294,0.4354,0.4357,0.436,0.4396,0,0,0.437,0.4371,0,0,0,0,0,0,0,0,0.4164,0.4171,0.4235,0.4237,0.4239,0.4282,0.4269,0.4324,0.4297,0.4275,0.4295,0.4294,0.4332,0.4337,0.435,0.4399,0.4401,0.437,0.4372,0.4373,0.4374,0,0,0,0,0,0,0,0.416,0.4168,0.4249,0.4236,0.4239,0.424,0.4247,0.428,0.4307,0.4277,0.4278,0.4285,0.4333,0.4347,0.4351,0.4402,0.437,0.4373,0.4375,0.4376,0.448,0.4481,0,0,0,0,0,0,0.4154,0.4165,0.4247,0.4251,0.4199,0.4243,0.425,0.4269,0.4307,0.4312,0.4285,0.4285,0.4342,0.4347,0.4353,0.4395,0.4373,0.4376,0.4378,0.4479,0.448,0.4481,0,0,0,0,0,0,0.4152,0.4162,0.4244,0.4208,0.4219,0.4245,0.4267,0.4271,0.4285,0.4313,0.4318,0.4295,0.4341,0.4349,0.4384,0.4398,0.4378,0.4381,0.4478,0.4479,0.448,0.4481,0,0,0,0,0,0,0.4149,0.4161,0.4176,0.4208,0.4221,0.4276,0.4268,0.4273,0.4291,0.4291,0.4323,0.4328,0.4341,0.438,0.4388,0.4402,0.4383,0.4477,0.4479,0.448,0.448,0.4482,0.4484,0,0,0,0,0,0.4145,0.4174,0.4176,0.4186,0.424,0.4276,0.4283,0.4298,0.4292,0.4306,0.4324,0.4327,0.4395,0.4383,0.4392,0.4408,0.4476,0.4478,0.448,0.4479,0.4482,0.4484,0,0,0,0,0,0,0.4142,0.4178,0.4182,0.4222,0.4246,0.4278,0.4297,0.4301,0.4327,0.4326,0.4343,0.435,0.4384,0.44,0.4386,0.4442,0.4435,0.4439,0.4431,0.4434,0.4436,0.4431,0.4386,0,0,0,0,0,0.4146,0.4173,0.4203,0.4236,0.4248,0.427,0.4287,0.4296,0.4321,0.4331,0.4351,0.4375,0.4402,0.4419,0.4445,0.4482,0.4488,0.4497,0.4499,0.4501,0.4503,0.4521,0.4525,0.4487,0.4487,0.4487,0,0,0.4155,0.4178,0.4194,0.4236,0.4256,0.4282,0.4279,0.4308,0.4327,0.4335,0.437,0.4385,0.4413,0.4448,0.4465,0.4462,0.4515,0.4503,0.4504,0.4506,0.4524,0.4527,0.453,0.4489,0.4488,0.4488,0,0,0.4184,0.4205,0.4233,0.4253,0.4282,0.4296,0.4303,0.4333,0.4344,0.4379,0.4385,0.4408,0.4454,0.4472,0.4487,0.452,0.4523,0.4528,0.4539,0.4556,0.4559,0.4562,0.4572,0.4575,0.4531,0.4531,0.4531,0,0.4191,0.4232,0.4247,0.4275,0.4292,0.4301,0.4328,0.4346,0.4383,0.4394,0.439,0.4446,0.4465,0.4504,0.4512,0.4525,0.4531,0.4525,0.4558,0.4561,0.4563,0.4573,0.4576,0.4532,0.4531,0.4531,0.4531,0,0.4237,0.4265,0.4284,0.4318,0.4338,0.4366,0.4384,0.4402,0.4408,0.4422,0.4456,0.4479,0.4509,0.4519,0.4527,0.4558,0.4555,0.4554,0.4547,0.4567,0.4576,0.458,0.4532,0.4532,0.4532,0.4532,0,0,0.4267,0.4308,0.4314,0.4329,0.4361,0.4382,0.4409,0.4438,0.4451,0.4476,0.4497,0.4535,0.4534,0.4551,0.456,0.4576,0.4597,0.4573,0.4574,0.4575,0.4631,0.463,0.4634,0.46,0.4601,0.4601,0.4628,0,0.4298,0.4347,0.436,0.4401,0.4425,0.4433,0.4456,0.4477,0.4491,0.4512,0.4527,0.4552,0.455,0.456,0.4576,0.4592,0.4609,0.459,0.4619,0.4619,0.461,0.4639,0.464,0.4664,0.4632,0.4632,0.4633,0,0.4341,0.4365,0.4408,0.4434,0.4445,0.4466,0.4492,0.4513,0.4537,0.4545,0.4563,0.4571,0.4597,0.4589,0.4624,0.4611,0.4624,0.4633,0.4634,0.4637,0.4627,0.4641,0.4672,0.4675,0.4639,0.4638,0.4638,0,0.4355,0.4398,0.4429,0.4441,0.4474,0.4487,0.4501,0.4524,0.454,0.4562,0.4572,0.4598,0.4611,0.463,0.4644,0.4637,0.4677,0.4671,0.4683,0.4683,0.4691,0.469,0.4723,0.4701,0.4701,0.4701,0.4701,0,0.4387,0.4413,0.4435,0.4454,0.4482,0.4497,0.4524,0.4538,0.4557,0.4578,0.4586,0.4605,0.4622,0.4643,0.4654,0.468,0.4687,0.4693,0.4695,0.4692,0.469,0.4699,0.4697,0.4702,0.4702,0.4702,0.4702,0,0.4408,0.4424,0.4457,0.4485,0.4492,0.4511,0.4534,0.4551,0.4564,0.459,0.4597,0.4617,0.4641,0.4657,0.4688,0.4695,0.4724,0.4726,0.4716,0.4717,0.4728,0.4726,0.4766,0.4772,0.4748,0.4748,0.4748,0,0.4426,0.4446,0.4475,0.4489,0.4503,0.4526,0.4541,0.4556,0.4572,0.4599,0.4612,0.4638,0.4658,0.4697,0.4714,0.4737,0.4739,0.4752,0.4743,0.4738,0.4737,0.4735,0.4736,0.4753,0.4753,0.4753,0.4753,0,0.4457,0.4464,0.4486,0.4511,0.4529,0.4549,0.4569,0.458,0.4598,0.4615,0.464,0.4656,0.4688,0.4712,0.4736,0.4749,0.4754,0.4756,0.476,0.4756,0.4748,0.475,0.4718,0.4755,0.4755,0.4754,0.4754,0.4754,0.4476,0.4492,0.4515,0.4539,0.4555,0.4573,0.459,0.4605,0.4626,0.4653,0.466,0.4686,0.4707,0.474,0.4753,0.4773,0.4771,0.4777,0.4779,0.4779,0.4779,0.4746,0.4778,0.4778,0.4778,0.4777,0.4777,0,0.4505,0.4519,0.4541,0.4569,0.4587,0.459,0.4612,0.4626,0.4649,0.4668,0.4688,0.4716,0.4739,0.4757,0.478,0.4792,0.4794,0.4797,0.4796,0.4798,0.478,0.4773,0.4795,0.4795,0.4795,0.4795,0.4795,0.4795,0.4522,0.455,0.4559,0.4594,0.4608,0.4633,0.4645,0.4661,0.4676,0.4707,0.4726,0.4738,0.4756,0.478,0.4801,0.4805,0.4813,0.4815,0.482,0.4802,0.48,0.4798,0.4792,0.4817,0.4817,0.4836,0.4837,0.4837]}]]